Stations météo

Publicité
Hurguada, Egypte (62463): Température de l'air & dewpoint: 16.02.2017 08:00:00 - 22.02.2017 08:00:00 (EET)Hurguada, Egypte (62463): Vitesse du vent: 16.02.2017 08:00:00 - 22.02.2017 08:00:00 (EET)Hurguada, Egypte (62463): Direction du vent: 16.02.2017 08:00:00 - 22.02.2017 08:00:00 (EET)Hurguada, Egypte (62463): reduced air pressure: 16.02.2017 08:00:00 - 22.02.2017 08:00:00 (EET)Hurguada, Egypte (62463): visibility: 16.02.2017 08:00:00 - 22.02.2017 08:00:00 (EET)
Date & Time tt [°C] td [°C] ff [km/h] ff [knt] dd ppp [hPa] vv [km]
22.02.2017 08:00:00 - - - - - - -
22.02.2017 07:00:00 - - - - - - -
22.02.2017 06:00:00 - - - - - - -
22.02.2017 05:00:00 12,0 1,9 9 5 WNW 1015,7 10
22.02.2017 04:00:00 - - - - - - -
22.02.2017 03:00:00 - - - - - - -
22.02.2017 02:00:00 13,1 8,8 15 8 WNW 1016,4 10
22.02.2017 01:00:00 - - - - - - -
22.02.2017 00:00:00 - - - - - - -
21.02.2017 23:00:00 14,5 1,7 9 5 WNW 1017,0 10
21.02.2017 22:00:00 - - - - - - -
21.02.2017 21:00:00 - - - - - - -
21.02.2017 20:00:00 17,0 5,3 18 10 NNW 1017,0 10
21.02.2017 19:00:00 - - - - - - -
21.02.2017 18:00:00 - - - - - - -
21.02.2017 17:00:00 20,6 2,9 29 16 N 1015,6 10
21.02.2017 16:00:00 - - - - - - -
21.02.2017 15:00:00 - - - - - - -
21.02.2017 14:00:00 21,6 4,2 32 17 N 1015,8 10
21.02.2017 13:00:00 - - - - - - -
21.02.2017 12:00:00 - - - - - - -
21.02.2017 11:00:00 19,6 2,4 22 12 NNW 1018,7 10
21.02.2017 10:00:00 - - - - - - -
21.02.2017 09:00:00 - - - - - - -
21.02.2017 08:00:00 14,6 3,1 29 16 NW 1019,7 10
21.02.2017 07:00:00 - - - - - - -
21.02.2017 06:00:00 - - - - - - -
21.02.2017 05:00:00 13,2 4,7 28 15 NW 1019,3 10
21.02.2017 04:00:00 - - - - - - -
21.02.2017 03:00:00 - - - - - - -
21.02.2017 02:00:00 14,7 2,2 28 15 NW 1018,4 10
21.02.2017 01:00:00 - - - - - - -
21.02.2017 00:00:00 - - - - - - -
20.02.2017 23:00:00 14,7 -3,2 15 8 WNW 1018,9 10
20.02.2017 22:00:00 - - - - - - -
20.02.2017 21:00:00 - - - - - - -
20.02.2017 20:00:00 17,4 -5,6 13 7 NNW 1019,0 10
20.02.2017 19:00:00 - - - - - - -
20.02.2017 18:00:00 - - - - - - -
20.02.2017 17:00:00 21,4 2,7 34 18 N 1017,2 10
20.02.2017 16:00:00 - - - - - - -
20.02.2017 15:00:00 - - - - - - -
20.02.2017 14:00:00 23,0 5,4 29 16 NNE 1017,4 10
20.02.2017 13:00:00 - - - - - - -
20.02.2017 12:00:00 - - - - - - -
20.02.2017 11:00:00 20,6 -0,7 21 11 NNW 1020,0 10
20.02.2017 10:00:00 - - - - - - -
20.02.2017 09:00:00 - - - - - - -
20.02.2017 08:00:00 14,2 -1,5 21 11 NW 1021,0 10
20.02.2017 07:00:00 - - - - - - -
20.02.2017 06:00:00 - - - - - - -
20.02.2017 05:00:00 11,7 -0,8 16 9 NW 1020,2 10
20.02.2017 04:00:00 - - - - - - -
20.02.2017 03:00:00 - - - - - - -
20.02.2017 02:00:00 12,9 -4,3 18 10 NW 1020,3 10
20.02.2017 01:00:00 - - - - - - -
20.02.2017 00:00:00 - - - - - - -
19.02.2017 23:00:00 12,8 3,5 8 4 NNW 1021,5 10
19.02.2017 22:00:00 - - - - - - -
19.02.2017 21:00:00 - - - - - - -
19.02.2017 20:00:00 17,2 6,4 9 5 WNW 1021,7 10
19.02.2017 19:00:00 - - - - - - -
19.02.2017 18:00:00 - - - - - - -
19.02.2017 17:00:00 21,8 -0,8 11 6 NNE 1021,0 10
19.02.2017 16:00:00 - - - - - - -
19.02.2017 15:00:00 - - - - - - -
19.02.2017 14:00:00 21,9 0,2 9 5 NNE 1022,0 10
19.02.2017 13:00:00 - - - - - - -
19.02.2017 12:00:00 - - - - - - -
19.02.2017 11:00:00 19,1 1,6 18 10 N 1024,4 10
19.02.2017 10:00:00 - - - - - - -
19.02.2017 09:00:00 - - - - - - -
19.02.2017 08:00:00 13,8 -0,3 18 10 NW 1025,0 10
19.02.2017 07:00:00 - - - - - - -
19.02.2017 06:00:00 - - - - - - -
19.02.2017 05:00:00 11,0 0,4 15 8 NW 1023,7 10
19.02.2017 04:00:00 - - - - - - -
19.02.2017 03:00:00 - - - - - - -
19.02.2017 02:00:00 11,2 1,7 18 10 NW 1023,7 10
19.02.2017 01:00:00 - - - - - - -
19.02.2017 00:00:00 - - - - - - -
18.02.2017 23:00:00 12,7 2,0 15 8 NW 1024,5 10
18.02.2017 22:00:00 - - - - - - -
18.02.2017 21:00:00 - - - - - - -
18.02.2017 20:00:00 15,2 3,0 5 3 WNW 1025,0 10
18.02.2017 19:00:00 - - - - - - -
18.02.2017 18:00:00 - - - - - - -
18.02.2017 17:00:00 18,8 4,5 8 4 NE 1024,0 10
18.02.2017 16:00:00 - - - - - - -
18.02.2017 15:00:00 - - - - - - -
18.02.2017 14:00:00 19,6 4,1 11 6 NE 1024,4 10
18.02.2017 13:00:00 - - - - - - -
18.02.2017 12:00:00 - - - - - - -
18.02.2017 11:00:00 17,6 1,9 9 5 NW 1026,4 10
18.02.2017 10:00:00 - - - - - - -
18.02.2017 09:00:00 - - - - - - -
18.02.2017 08:00:00 12,7 0,4 22 12 NW 1026,6 10
18.02.2017 07:00:00 - - - - - - -
18.02.2017 06:00:00 - - - - - - -
18.02.2017 05:00:00 11,0 0,4 16 9 WNW 1024,8 10
18.02.2017 04:00:00 - - - - - - -
18.02.2017 03:00:00 - - - - - - -
18.02.2017 02:00:00 11,8 0,6 16 9 WNW 1025,0 10
18.02.2017 01:00:00 - - - - - - -
18.02.2017 00:00:00 - - - - - - -
17.02.2017 23:00:00 12,4 0,6 16 9 NW 1025,0 10
17.02.2017 22:00:00 - - - - - - -
17.02.2017 21:00:00 - - - - - - -
17.02.2017 20:00:00 14,1 1,2 18 10 NNW 1024,6 10
17.02.2017 19:00:00 - - - - - - -
17.02.2017 18:00:00 - - - - - - -
17.02.2017 17:00:00 17,4 1,4 21 11 N 1022,3 10
17.02.2017 16:00:00 - - - - - - -
17.02.2017 15:00:00 - - - - - - -
17.02.2017 14:00:00 18,1 -0,3 24 13 N 1022,0 10
17.02.2017 13:00:00 - - - - - - -
17.02.2017 12:00:00 - - - - - - -
17.02.2017 11:00:00 16,3 -1,3 22 12 NNW 1023,7 10
17.02.2017 10:00:00 - - - - - - -
17.02.2017 09:00:00 - - - - - - -
17.02.2017 08:00:00 11,6 4,5 31 17 NW 1023,0 10
17.02.2017 07:00:00 - - - - - - -
17.02.2017 06:00:00 - - - - - - -
17.02.2017 05:00:00 10,4 4,3 24 13 NW 1021,4 10
17.02.2017 04:00:00 - - - - - - -
17.02.2017 03:00:00 - - - - - - -
17.02.2017 02:00:00 11,8 6,7 16 9 NW 1021,0 10
17.02.2017 01:00:00 - - - - - - -
17.02.2017 00:00:00 - - - - - - -
16.02.2017 23:00:00 12,4 2,6 15 8 NNW 1020,8 10
16.02.2017 22:00:00 - - - - - - -
16.02.2017 21:00:00 - - - - - - -
16.02.2017 20:00:00 15,9 1,9 34 18 N 1019,5 10
16.02.2017 19:00:00 - - - - - - -
16.02.2017 18:00:00 - - - - - - -
16.02.2017 17:00:00 16,7 3,0 37 20 N 1017,6 10
16.02.2017 16:00:00 - - - - - - -
16.02.2017 15:00:00 - - - - - - -
16.02.2017 14:00:00 19,2 -3,7 28 15 NW 1017,4 10
16.02.2017 13:00:00 - - - - - - -
16.02.2017 12:00:00 - - - - - - -
16.02.2017 11:00:00 17,6 -2,7 31 17 NNW 1020,0 10
16.02.2017 10:00:00 - - - - - - -
16.02.2017 09:00:00 - - - - - - -
16.02.2017 08:00:00 11,8 0,9 16 9 NW 1020,3 10

tt = Température de l'air
td = dewpoint
ff = Vitesse du vent
dd = Direction du vent
ppp = reduced air pressure
vv = visibility

stations d'obs. à proximité